Weather History for KCLE - April, 2012

Change the Weather History Date:

Sunday, April 1, 2012

  Actual Average Record
Temperature  
Mean Temperature 51 °F 44 °F  
Max Temperature 63 °F 53 °F 83 °F (2010)
Min Temperature 39 °F 35 °F 10 °F (1964)
Degree Days  
Heating Degree Days 14 21  
Month to date heating degree days 14 21  
Since 1 July heating degree days 4087 5064  
Cooling Degree Days 0 0  
Month to date cooling degree days 0 0  
Year to date cooling degree days 24 1  
Moisture  
Dew Point 38 °F    
Average Humidity 70    
Maximum Humidity 85    
Minimum Humidity 55    
Precipitation  
Precipitation 0.02 in 0.12 in 0.58 in (2004)
Month to date precipitation 0.02 0.12  
Year to date precipitation 9.37 8.11  
Snow  
Snow 0.00 in 0.20 in - ()
Month to date snowfall 0.0 0.2  
Since 1 July snowfall 38.5 65.0  
Snow Depth 0.00 in    
Sea Level Pressure  
Sea Level Pressure 29.82 in    
Wind  
Wind Speed 9 mph (WSW)    
Max Wind Speed 20 mph    
Max Gust Speed 25 mph    
Visibility 7 miles    
Events Rain    
T = Trace of Precipitation, MM = Missing Value Source: NWS Daily Summary

Daily Weather History Graph

Daily Weather History Graph

Search for Another Location

Airport or City:

Trip Planner

Search our weather history database for the weather conditions in past years. The results will help you decide how hot, cold, wet, or windy it might be!

Date:

Astronomy

Apr. 01, 2012 Rise Set
Actual Time 7:09 AM EDT 7:53 PM EDT
Civil Twilight 6:41 AM EDT 8:21 PM EDT
Nautical Twilight 6:08 AM EDT 8:54 PM EDT
Astronomical Twilight 5:34 AM EDT 9:28 PM EDT
Moon 2:18 PM EDT (4/1) 3:49 AM EDT (4/1)
Length of Visible Light 13h 39m
Length of Day
12h 43m
Waxing Gibbous, 69% of the Moon is Illuminated
Apr 1
Waxing Gibbous
Apr 6
Full
Apr 13
Last Quarter
Apr 21
New
Apr 29
First Quarter

Hourly Weather History & Observations

Time (EDT) Temp. Windchill Dew Point Humidity Pressure Visibility Wind Dir Wind Speed Gust Speed Precip Events Conditions
12:51 AM 39.0 °F 36.8 °F 32.0 °F 76% 29.97 in 10.0 mi SSW 3.5 mph - N/A   Overcast
1:51 AM 39.0 °F 36.8 °F 32.0 °F 76% 29.96 in 10.0 mi SW 3.5 mph - N/A   Overcast
2:51 AM 39.0 °F 34.8 °F 32.0 °F 76% 29.94 in 10.0 mi South 5.8 mph - N/A   Overcast
3:51 AM 39.0 °F 34.0 °F 32.0 °F 76% 29.92 in 10.0 mi SW 6.9 mph - N/A   Overcast
4:51 AM 39.0 °F 35.7 °F 33.1 °F 79% 29.90 in 10.0 mi SSW 4.6 mph - N/A   Overcast
5:51 AM 39.9 °F 32.9 °F 33.1 °F 77% 29.88 in 9.0 mi SSW 11.5 mph - N/A   Overcast
6:28 AM 39.2 °F 32.5 °F 33.8 °F 81% 29.84 in 8.0 mi South 10.4 mph - N/A   Overcast
6:51 AM 39.9 °F 33.4 °F 34.0 °F 79% 29.85 in 8.0 mi South 10.4 mph - N/A   Overcast
7:17 AM 39.2 °F 34.2 °F 33.8 °F 81% 29.86 in 8.0 mi South 6.9 mph - N/A   Overcast
7:51 AM 39.9 °F 36.7 °F 35.1 °F 83% 29.89 in 7.0 mi SSW 4.6 mph - N/A   Overcast
8:38 AM 41.0 °F 35.2 °F 35.6 °F 81% 29.85 in 7.0 mi SSE 9.2 mph - N/A   Mostly Cloudy
8:51 AM 42.1 °F 37.1 °F 36.0 °F 79% 29.87 in 8.0 mi South 8.1 mph - N/A   Mostly Cloudy
9:27 AM 42.8 °F 37.0 °F 35.6 °F 76% 29.85 in 8.0 mi South 10.4 mph - N/A   Mostly Cloudy
9:51 AM 45.0 °F 40.1 °F 37.0 °F 74% 29.87 in 9.0 mi SSW 9.2 mph - N/A   Mostly Cloudy
10:51 AM 48.0 °F - 39.0 °F 71% 29.83 in 10.0 mi South 6.9 mph - N/A   Mostly Cloudy
11:51 AM 52.0 °F - 39.9 °F 63% 29.80 in 10.0 mi South 8.1 mph - N/A   Overcast
12:51 PM 52.0 °F - 39.9 °F 63% 29.79 in 10.0 mi SW 8.1 mph - N/A   Overcast
1:51 PM 57.0 °F - 43.0 °F 59% 29.73 in 10.0 mi SSW 10.4 mph - N/A   Overcast
2:51 PM 61.0 °F - 45.0 °F 56% 29.70 in 10.0 mi SW 9.2 mph - N/A   Mostly Cloudy
3:39 PM 53.6 °F - 42.8 °F 67% 29.69 in 9.0 mi North 11.5 mph - N/A   Overcast
3:51 PM 53.1 °F - 42.1 °F 66% 29.71 in 9.0 mi North 10.4 mph - N/A   Overcast
4:51 PM 50.0 °F - 41.0 °F 71% 29.72 in 7.0 mi North 9.2 mph - N/A   Overcast
5:51 PM 46.9 °F - 39.9 °F 77% 29.73 in 6.0 mi North 8.1 mph - N/A   Haze
6:51 PM 46.9 °F - 39.9 °F 77% 29.74 in 5.0 mi North 6.9 mph - N/A   Haze
7:21 PM 46.4 °F 41.5 °F 41.0 °F 81% 29.74 in 4.0 mi North 10.4 mph - 0.00 in Rain Light Rain
7:51 PM 46.9 °F - 41.0 °F 80% 29.76 in 4.0 mi NNE 6.9 mph - 0.00 in Rain Light Rain
8:18 PM 46.4 °F 42.9 °F 41.0 °F 81% 29.77 in 5.0 mi North 6.9 mph - 0.01 in Rain Light Rain
8:51 PM 46.0 °F 42.5 °F 42.1 °F 86% 29.80 in 4.0 mi North 6.9 mph - 0.01 in   Overcast
8:59 PM 46.4 °F 41.9 °F 42.8 °F 87% 29.78 in 4.0 mi NNE 9.2 mph - 0.00 in Rain Light Rain
9:07 PM 46.4 °F 41.9 °F 42.8 °F 87% 29.79 in 4.0 mi North 9.2 mph - 0.00 in Rain Light Rain
9:18 PM 46.4 °F 40.1 °F 42.8 °F 87% 29.80 in 3.0 mi North 15.0 mph - 0.01 in Rain Light Rain
9:51 PM 44.1 °F 37.1 °F 39.9 °F 85% 29.82 in 3.0 mi NNE 15.0 mph 24.2 mph 0.01 in   Overcast
10:20 PM 44.6 °F 37.2 °F 39.2 °F 81% 29.81 in 5.0 mi NNE 17.3 mph 23.0 mph N/A   Haze
10:51 PM 43.0 °F 34.8 °F 37.9 °F 82% 29.85 in 6.0 mi North 18.4 mph 25.3 mph N/A   Haze
11:51 PM 42.1 °F 36.6 °F 37.0 °F 82% 29.85 in 7.0 mi NNE 9.2 mph - N/A   Overcast